Content
SEND FEEDBACK

Daily
Averages
Monthly
Summary
United States of America

MOSCOW, PENNSYLVANIA


Home > North America > United States > Pennsylvania
Elevation: 1360 feet     Latitude: 41 23N     Longitude: 075 26W

WEATHER
 
SELECT A DAY
Number of Records: 213,346;   Date Range: 1/1/95 - 4/17/14
 
SHARE

PRINT THIS DATA

[ ← Previous Day ]
WEATHER ALMANAC - FEBRUARY 13, 2013
[ Next Day → ]
[ °C ]   °F
Weather ElementAverageHighLow
Temperature32.9 °F41 °F (1:54 pm)23 °F (4:54 am)
Dewpoint25.9 °F32 °F (9:30 pm)18 °F (6:54 am)
Humidity77.5 %100 % (9:30 pm)51 % (1:54 pm)
Barometer29.76 in29.94 in (1:54 am)29.69 in (4:54 pm)
Wind Speed2 mph10.4 mph (7:54 pm)
Weather ElementAverage
Visibility5.7 mi
Wind DirectionESE (102.2 °)

Weather ElementTotal
Precipitation0.22 in
Heating Degree Days33 (Base 65)
Averaged from 36 records on February 13, 2013
WEATHER CONDITIONS BREAKOUT
WIND DIRECTION BREAKOUT
WEATHER BY HOUR - FEBRUARY 13, 2013
[ °C ]   °F
Local TimeTemperatureDewpointHumidityBarometerVisibilityWind DirectionWind SpeedGust SpeedPrecipitationEventsConditions
1:54 AM28.9 °F19.9 °F69 %29.94 in10.0 miCalmPartly Cloudy
2:54 AM28.0 °F19.9 °F72 %29.94 in10.0 miCalmClear
3:54 AM25.0 °F19.0 °F78 %29.90 in10.0 miCalmClear
4:54 AM23.0 °F19.0 °F85 %29.90 in10.0 miCalmClear
5:54 AM25.0 °F19.0 °F78 %29.89 in10.0 miEast (100°)4.6 mphClear
6:54 AM23.0 °F18.0 °F81 %29.89 in10.0 miEast (100°)3.5 mphClear
7:54 AM24.1 °F19.0 °F81 %29.88 in8.0 miESE (110°)3.5 mphClear
8:54 AM30.0 °F21.0 °F69 %29.87 in8.0 miCalmClear
9:54 AM33.1 °F21.9 °F64 %29.84 in10.0 miCalmClear
10:54 AM35.1 °F21.0 °F57 %29.84 in10.0 miNE (40°)3.5 mphClear
11:54 AM37.0 °F21.9 °F54 %29.83 in10.0 miCalmClear
12:54 PM39.0 °F23.0 °F53 %29.78 in10.0 miNNW (330°)4.6 mphClear
1:54 PM41.0 °F24.1 °F51 %29.76 in10.0 miVariable3.5 mphClear
2:54 PM41.0 °F24.1 °F51 %29.72 in10.0 miCalmClear
3:54 PM41.0 °F24.1 °F51 %29.70 in10.0 miCalmClear
4:54 PM39.9 °F24.1 °F53 %29.69 in10.0 miCalmMostly Cloudy
5:54 PM37.9 °F24.1 °F57 %29.69 in10.0 miCalmOvercast
6:54 PM37.0 °F25.0 °F62 %29.69 in10.0 miCalmOvercast
7:54 PM37.0 °F28.0 °F70 %29.71 in6.0 miNW (310°)10.4 mph0.00 inSnowLight Snow
8:04 PM35.6 °F28.4 °F75 %29.69 in5.0 miNW (320°)6.9 mph0.00 inSnowLight Snow
8:17 PM33.8 °F30.2 °F87 %29.70 in2.5 miWNW (290°)4.6 mph0.00 inSnowLight Snow
8:28 PM33.8 °F30.2 °F87 %29.70 in1.2 miWNW (300°)4.6 mph0.01 inSnowLight Snow
8:50 PM33.8 °F30.2 °F87 %29.70 in1.0 miNW (310°)3.5 mph0.03 inSnowLight Snow
8:54 PM33.1 °F30.9 °F92 %29.72 in1.0 miWNW (300°)3.5 mph0.03 inSnowLight Snow
9:01 PM33.8 °F30.2 °F87 %29.70 in0.8 miWNW (290°)3.5 mph0.01 inSnowLight Snow
9:08 PM33.8 °F30.2 °F87 %29.69 in0.8 miCalm0.01 inSnowLight Snow
9:30 PM32.0 °F32.0 °F100 %29.70 in0.5 miCalm0.03 inFog-SnowSnow
9:50 PM32.0 °F30.2 °F93 %29.70 in0.8 miCalm0.04 inSnowLight Snow
9:54 PM32.0 °F30.9 °F96 %29.72 in1.0 miCalm0.04 inSnowLight Snow
10:38 PM32.0 °F30.2 °F93 %29.69 in1.8 miCalm0.01 inSnowLight Snow
10:54 PM32.0 °F30.9 °F96 %29.70 in1.8 miCalm0.01 inOvercast
10:56 PM32.0 °F30.2 °F93 %29.69 in2.0 miCalmOvercast
11:05 PM32.0 °F32.0 °F100 %29.69 in1.8 miCalmOvercast
11:38 PM32.0 °F30.2 °F93 %29.69 in0.5 miWNW (300°)3.5 mphFogFog
11:44 PM32.0 °F30.2 °F93 %29.69 in0.2 miWNW (300°)3.5 mphFogFog
11:54 PM32.0 °F30.9 °F96 %29.72 in0.2 miWest (280°)3.5 mphFogFog
Hourly data recorded from KAVP, located 15.74 miles away from Moscow, Pennsylvania







STORIES FROM OUR PARTNERS